STARLINK-1802 (46702 NORAD) Tracking and Keplerian Element Data

This shows tracking and keplerian element data for the satellite.

Feedback or suggestion? Click here.




ElementValue
Catalog46702
NameSTARLINK-1802
Epoch Orbit177
Epoch Day20.91667824
Epoch Year2021
RAAN6.4704
Inclination53.057
Eccentricity0.0003669
Argument of Perigee318.4163
Mean Anonmoly65.0392
Mean Motion15.60420644
Decay Rate-0.0097019
L11 46702U 20073AJ 21020.91667824 -.00970190 00000-0 -12819-1 0 9999
L22 46702 53.0570 6.4704 0003669 318.4163 65.0392 15.60420644 1774

Live tracking and technical data element details for STARLINK-1802 (NORAD 46702). STARLINK-1802 can be tracked NOW for your location showing map with azimuth and elevation plus other details from your city location.

Track the satellite on the map from your city or location and see movement details for azimuth, elevation, latitude, longitude, range, height, and movement on the map or in text.







IsCatalogInMostPopularTable: catalog: 46702, numindb: 27
Update: records affected: 1



GetName: 46702 STARLINK-1802

Hit Count: updated at: Fri, 22 Jan 2021 15:18:21 GMT